When you browse on this site, cookies collect data to enhance your experience and personalize the content and advertising you see.
Visit our Privacy Policy to learn more. By continuing to use the site, you agree to this use of cookies and data.
EN

Hourly Weather Nagpur

Today, 15 August, Saturday

Time Temperature Precipitation Wind Pressure Humidity
00:00 +26°C° 0.2 mm 3 mps 724 mmHg 91%
01:00 +26°C° 0.2 mm 3 mps 723 mmHg 91%
02:00 +26°C° 0.2 mm 3 mps 723 mmHg 92%
03:00 +26°C° 0.1 mm 3 mps 723 mmHg 92%
04:00 +26°C° 0.1 mm 3 mps 723 mmHg 92%
05:00 +26°C° 0 mm 3 mps 723 mmHg 94%
06:00 +27°C° 0 mm 4 mps 723 mmHg 91%
07:00 +27°C° 0 mm 4 mps 724 mmHg 89%
08:00 +28°C° 0 mm 4 mps 724 mmHg 87%
09:00 +29°C° 0.1 mm 3 mps 724 mmHg 84%
10:00 +29°C° 0.1 mm 3 mps 724 mmHg 81%
11:00 +29°C° 0 mm 4 mps 725 mmHg 78%
12:00 +30°C° 0.2 mm 4 mps 724 mmHg 78%
13:00 +30°C° 0.2 mm 4 mps 723 mmHg 77%
14:00 +32°C° 0.2 mm 4 mps 723 mmHg 76%
15:00 +30°C° 1.2 mm 4 mps 722 mmHg 78%
16:00 +30°C° 1.2 mm 5 mps 722 mmHg 81%
17:00 +29°C° 0 mm 4 mps 723 mmHg 81%
18:00 +29°C° 0.7 mm 4 mps 723 mmHg 83%
19:00 +28°C° 0.7 mm 4 mps 724 mmHg 86%
20:00 +27°C° 0.7 mm 4 mps 724 mmHg 89%
21:00 +27°C° 0.3 mm 4 mps 724 mmHg 89%
22:00 +27°C° 0.3 mm 3 mps 725 mmHg 90%
23:00 +27°C° 0.3 mm 3 mps 725 mmHg 91%

Tomorrow, 16 August, Sunday

Time Temperature Precipitation Wind Pressure Humidity
00:00 +27°C° 0.6 mm 3 mps 724 mmHg 91%
01:00 +27°C° 0.6 mm 3 mps 724 mmHg 91%
02:00 +27°C° 0.6 mm 3 mps 723 mmHg 91%
03:00 +27°C° 0.9 mm 3 mps 723 mmHg 91%
04:00 +26°C° 0.9 mm 3 mps 723 mmHg 91%
05:00 +26°C° 0.9 mm 3 mps 723 mmHg 91%
06:00 +26°C° 1.3 mm 3 mps 724 mmHg 91%
07:00 +27°C° 1.3 mm 3 mps 724 mmHg 91%
08:00 +27°C° 1.3 mm 4 mps 724 mmHg 91%
09:00 +27°C° 0.7 mm 4 mps 724 mmHg 90%
10:00 +28°C° 0.7 mm 5 mps 724 mmHg 88%
11:00 +28°C° 0.7 mm 5 mps 724 mmHg 86%
12:00 +29°C° 0.3 mm 5 mps 724 mmHg 84%
13:00 +29°C° 0.3 mm 5 mps 723 mmHg 82%
14:00 +30°C° 0.3 mm 5 mps 722 mmHg 80%
15:00 +29°C° 0 mm 5 mps 722 mmHg 82%
16:00 +29°C° 0 mm 4 mps 722 mmHg 84%
17:00 +29°C° 0 mm 4 mps 722 mmHg 85%
18:00 +28°C° 0.4 mm 4 mps 723 mmHg 86%
19:00 +28°C° 0.4 mm 3 mps 723 mmHg 86%
20:00 +27°C° 0.4 mm 3 mps 724 mmHg 87%
21:00 +27°C° 0.5 mm 3 mps 724 mmHg 88%
22:00 +27°C° 0.5 mm 3 mps 724 mmHg 89%
23:00 +27°C° 0.5 mm 4 mps 724 mmHg 91%

Day after tomorrow, 17 August, Monday

Time Temperature Precipitation Wind Pressure Humidity
00:00 +27°C° 2.3 mm 4 mps 724 mmHg 92%
01:00 +26°C° 2.3 mm 5 mps 723 mmHg 92%
02:00 +26°C° 2.3 mm 5 mps 723 mmHg 93%
03:00 +26°C° 7.4 mm 5 mps 723 mmHg 94%
04:00 +26°C° 7.4 mm 5 mps 723 mmHg 95%
05:00 +26°C° 7.4 mm 6 mps 723 mmHg 96%
06:00 +26°C° 7.9 mm 5 mps 723 mmHg 96%
07:00 +26°C° 7.9 mm 5 mps 724 mmHg 96%
08:00 +26°C° 7.9 mm 5 mps 724 mmHg 96%
09:00 +26°C° 1.7 mm 5 mps 724 mmHg 95%
10:00 +26°C° 1.7 mm 5 mps 724 mmHg 93%
11:00 +27°C° 1.7 mm 6 mps 724 mmHg 92%
12:00 +27°C° 0 mm 6 mps 724 mmHg 89%
13:00 +28°C° 0 mm 6 mps 723 mmHg 87%
14:00 +28°C° 0 mm 7 mps 723 mmHg 85%
15:00 +28°C° 0 mm 6 mps 722 mmHg 85%
16:00 +29°C° 0 mm 5 mps 722 mmHg 84%
17:00 +29°C° 0 mm 5 mps 722 mmHg 84%
18:00 +28°C° 0 mm 5 mps 723 mmHg 86%
19:00 +27°C° 0 mm 4 mps 724 mmHg 87%
20:00 +27°C° 0 mm 4 mps 724 mmHg 89%
21:00 +27°C° 0 mm 4 mps 724 mmHg 89%
22:00 +26°C° 0 mm 4 mps 725 mmHg 89%
23:00 +26°C° 0 mm 4 mps 725 mmHg 90%

18 August, Tuesday

Time Temperature Precipitation Wind Pressure Humidity
00:00 +26°C° 0 mm 4 mps 724 mmHg 90%
01:00 +26°C° 0 mm 4 mps 724 mmHg 90%
02:00 +26°C° 0 mm 4 mps 724 mmHg 90%
03:00 +26°C° 0 mm 3 mps 724 mmHg 90%
04:00 +26°C° 0 mm 3 mps 724 mmHg 90%
05:00 +26°C° 0 mm 3 mps 724 mmHg 90%
06:00 +27°C° 0.1 mm 3 mps 725 mmHg 89%
07:00 +27°C° 0.1 mm 4 mps 725 mmHg 88%
08:00 +27°C° 0.1 mm 4 mps 725 mmHg 86%
09:00 +28°C° 0.3 mm 4 mps 725 mmHg 86%
10:00 +28°C° 0.3 mm 4 mps 725 mmHg 86%
11:00 +28°C° 0.3 mm 4 mps 725 mmHg 86%
12:00 +28°C° 1.1 mm 3 mps 724 mmHg 86%
13:00 +28°C° 1.1 mm 3 mps 724 mmHg 85%
14:00 +29°C° 1.1 mm 3 mps 723 mmHg 85%
15:00 +28°C° 1.3 mm 3 mps 723 mmHg 87%
16:00 +28°C° 1.3 mm 4 mps 723 mmHg 89%
17:00 +28°C° 1.3 mm 4 mps 723 mmHg 90%
18:00 +27°C° 3.2 mm 4 mps 723 mmHg 91%
19:00 +27°C° 3.2 mm 5 mps 724 mmHg 92%
20:00 +27°C° 3.2 mm 5 mps 724 mmHg 93%
21:00 +26°C° 6.6 mm 5 mps 724 mmHg 94%
22:00 +26°C° 6.6 mm 5 mps 724 mmHg 94%
23:00 +26°C° 6.6 mm 6 mps 724 mmHg 95%

19 August, Wednesday

Time Temperature Precipitation Wind Pressure Humidity
00:00 +26°C° 5.3 mm 6 mps 724 mmHg 95%
01:00 +26°C° 5.3 mm 7 mps 724 mmHg 94%
02:00 +26°C° 5.3 mm 7 mps 723 mmHg 94%
03:00 +24°C° 4.8 mm 7 mps 723 mmHg 94%
04:00 +24°C° 4.8 mm 7 mps 724 mmHg 94%
05:00 +24°C° 4.8 mm 7 mps 724 mmHg 94%
06:00 +24°C° 2.6 mm 7 mps 724 mmHg 94%
07:00 +26°C° 2.6 mm 7 mps 724 mmHg 93%
08:00 +26°C° 2.6 mm 6 mps 725 mmHg 92%
09:00 +26°C° 0.4 mm 7 mps 725 mmHg 91%
10:00 +27°C° 0.4 mm 7 mps 725 mmHg 89%
11:00 +27°C° 0.4 mm 7 mps 725 mmHg 88%
12:00 +28°C° 0.4 mm 7 mps 724 mmHg 87%
13:00 +28°C° 0.4 mm 7 mps 724 mmHg 86%
14:00 +28°C° 0.4 mm 7 mps 724 mmHg 85%
15:00 +28°C° 0.2 mm 6 mps 723 mmHg 86%
16:00 +27°C° 0.2 mm 6 mps 723 mmHg 88%
17:00 +27°C° 0.2 mm 5 mps 723 mmHg 90%
18:00 +26°C° 0.3 mm 5 mps 724 mmHg 90%
19:00 +26°C° 0.3 mm 5 mps 724 mmHg 91%
20:00 +26°C° 0.3 mm 5 mps 725 mmHg 92%
21:00 +26°C° 1.3 mm 5 mps 725 mmHg 93%
22:00 +26°C° 1.3 mm 5 mps 725 mmHg 93%
23:00 +26°C° 1.3 mm 5 mps 725 mmHg 94%

20 August, Thursday

Time Temperature Precipitation Wind Pressure Humidity
00:00 +26°C° 1.3 mm 5 mps 724 mmHg 94%
01:00 +26°C° 1.3 mm 5 mps 724 mmHg 94%
02:00 +26°C° 1.3 mm 5 mps 723 mmHg 94%
03:00 +25°C° 0.5 mm 5 mps 723 mmHg 93%
04:00 +25°C° 0.5 mm 5 mps 723 mmHg 93%
05:00 +25°C° 0.5 mm 5 mps 723 mmHg 93%
06:00 +25°C° 1.8 mm 5 mps 723 mmHg 93%
07:00 +26°C° 1.8 mm 5 mps 723 mmHg 94%
08:00 +26°C° 1.8 mm 5 mps 724 mmHg 94%
09:00 +26°C° 3.1 mm 5 mps 724 mmHg 94%
10:00 +26°C° 3.1 mm 5 mps 724 mmHg 95%
11:00 +26°C° 3.1 mm 5 mps 724 mmHg 95%
12:00 +26°C° 0.9 mm 5 mps 724 mmHg 94%
13:00 +26°C° 0.9 mm 5 mps 723 mmHg 93%
14:00 +26°C° 0.9 mm 6 mps 723 mmHg 93%
15:00 +26°C° 0.3 mm 6 mps 723 mmHg 92%
16:00 +26°C° 0.3 mm 6 mps 723 mmHg 92%
17:00 +26°C° 0.3 mm 6 mps 723 mmHg 92%
18:00 +26°C° 0 mm 6 mps 724 mmHg 92%
19:00 +26°C° 0 mm 5 mps 724 mmHg 92%
20:00 +26°C° 0 mm 5 mps 725 mmHg 92%
21:00 +25°C° 0.1 mm 5 mps 725 mmHg 93%
22:00 +25°C° 0.1 mm 5 mps 726 mmHg 93%
23:00 +25°C° 0.1 mm 5 mps 726 mmHg 93%
Show more